This is the latest recevied weather packets stored in our database for station/object ke5jzm-1. If no packets are shown the sender has not sent any weather packets the latest 10 day(s).
| Time | Temp. | Humidity | Pressure | Rain* | Wind** | Luminosity | Snow |
|---|---|---|---|---|---|---|---|
| 1777577627 | 25.56° C | 62% | 1010.1 hPa | 3.56 mm | - | 387 W/m² | - |
| 1777577566 | 25.56° C | 62% | 1010.2 hPa | 3.56 mm | - | 294 W/m² | - |
| 1777577503 | 25.56° C | 62% | 1010.3 hPa | 3.56 mm | - | 288 W/m² | - |
| 1777577443 | 25.56° C | 62% | 1010.3 hPa | 3.56 mm | - | 361 W/m² | - |
| 1777577382 | 25.56° C | 62% | 1010.3 hPa | 3.56 mm | - | 410 W/m² | - |
| 1777577323 | 25.56° C | 62% | 1010.4 hPa | 3.56 mm | - | 314 W/m² | - |
| 1777577263 | 25.56° C | 62% | 1010.4 hPa | 3.56 mm | - | 249 W/m² | - |
| 1777577203 | 25.56° C | 62% | 1010.5 hPa | 3.3 mm | - | 234 W/m² | - |
| 1777577143 | 25.56° C | 62% | 1010.5 hPa | 3.3 mm | - | 213 W/m² | - |
| 1777577082 | 25.56° C | 62% | 1010.5 hPa | 2.79 mm | - | 190 W/m² | - |
| 1777577023 | 25.56° C | 62% | 1010.5 hPa | 2.54 mm | - | 176 W/m² | - |
| 1777576964 | 25.56° C | 62% | 1010.5 hPa | 2.03 mm | - | 168 W/m² | - |
| 1777576903 | 25.56° C | 62% | 1010.5 hPa | 1.78 mm | - | 162 W/m² | - |
| 1777576844 | 25.56° C | 62% | 1010.5 hPa | 1.78 mm | - | 151 W/m² | - |
| 1777576783 | 25.56° C | 62% | 1010.6 hPa | 1.52 mm | - | 131 W/m² | - |
| 1777576723 | 25.56° C | 62% | 1010.7 hPa | 9.65 mm | - | 98 W/m² | - |
| 1777576663 | 25.56° C | 62% | 1010.9 hPa | 9.4 mm | - | 77 W/m² | - |
| 1777576603 | 25.56° C | 62% | 1011 hPa | 9.14 mm | - | 63 W/m² | - |
| 1777576543 | 25.56° C | 62% | 1011 hPa | 8.89 mm | - | 57 W/m² | - |
| 1777576483 | 25.56° C | 62% | 1010.9 hPa | 8.89 mm | - | 56 W/m² | - |
| 1777576424 | 25.56° C | 62% | 1010.8 hPa | 8.64 mm | - | 56 W/m² | - |
| 1777576363 | 25.56° C | 62% | 1010.7 hPa | 8.38 mm | - | 57 W/m² | - |
| 1777576303 | 25.56° C | 62% | 1010.5 hPa | 8.38 mm | - | 57 W/m² | - |
| 1777576243 | 25.56° C | 62% | 1010.4 hPa | 8.38 mm | - | 57 W/m² | - |
| 1777576183 | 25.56° C | 62% | 1010.4 hPa | 8.38 mm | - | 57 W/m² | - |
* Rain latest hour (hover to see other rain measurements)
** Current wind speed in m/s (hover to see current wind gust speed)